Time,TemperatureF,DewpointF,PressureIn,WindDirection,WindDirectionDegrees,WindSpeedMPH,WindSpeedGustMPH,Humidity,HourlyPrecipIn,Conditions,Clouds,dailyrainin,SoftwareType,DateUTC
2013-04-17 00:00:00,60.2,30.2,29.96,WNW,292,3.0,13.0,32,0.00,,---,0.00,VWS V14.01,2013-04-17 07:00:00,
2013-04-17 00:07:00,60.3,30.0,29.97,WNW,300,1.0,7.0,32,0.00,,,0.00,weatherlink.com 1.10,2013-04-17 07:07:00,
2013-04-17 00:15:00,60.2,30.2,29.97,WNW,292,4.0,9.0,32,0.00,,---,0.00,VWS V14.01,2013-04-17 07:15:00,
2013-04-17 00:22:00,60.0,30.0,29.97,WNW,290,1.0,8.0,32,0.00,,,0.00,weatherlink.com 1.10,2013-04-17 07:22:00,
2013-04-17 00:30:00,59.8,30.7,29.97,WNW,292,3.0,8.0,33,0.00,,---,0.00,VWS V14.01,2013-04-17 07:30:00,
2013-04-17 00:37:00,59.5,30.0,29.97,WNW,294,3.0,7.0,33,0.00,,,0.00,weatherlink.com 1.10,2013-04-17 07:37:00,
2013-04-17 00:45:00,59.3,31.0,29.97,WNW,292,2.0,8.0,34,0.00,,---,0.00,VWS V14.01,2013-04-17 07:45:00,
2013-04-17 00:52:00,59.0,30.0,29.98,West,262,1.0,7.0,34,0.00,,,0.00,weatherlink.com 1.10,2013-04-17 07:52:00,
2013-04-17 01:00:00,59.1,30.8,29.98,WNW,292,2.0,7.0,34,0.00,,---,0.00,VWS V14.01,2013-04-17 08:00:00,
2013-04-17 01:07:00,58.9,31.0,29.98,West,278,3.0,6.0,35,0.00,,,0.00,weatherlink.com 1.10,2013-04-17 08:07:00,
2013-04-17 01:15:00,59.1,31.5,29.98,WNW,292,3.0,7.0,35,0.00,,---,0.00,VWS V14.01,2013-04-17 08:15:00,
2013-04-17 01:22:00,59.0,31.0,29.98,WNW,300,2.0,8.0,35,0.00,,,0.00,weatherlink.com 1.10,2013-04-17 08:22:00,
2013-04-17 01:30:00,59.0,32.1,29.98,WNW,292,3.0,8.0,36,0.00,,---,0.00,VWS V14.01,2013-04-17 08:30:00,
2013-04-17 01:37:00,59.1,32.0,29.98,WNW,290,4.0,11.0,36,0.00,,,0.00,weatherlink.com 1.10,2013-04-17 08:37:00,
2013-04-17 01:45:00,59.1,31.5,29.98,WNW,292,4.0,11.0,35,0.00,,---,0.00,VWS V14.01,2013-04-17 08:45:00,
2013-04-17 01:52:00,59.0,31.0,29.98,WNW,296,2.0,6.0,35,0.00,,,0.00,weatherlink.com 1.10,2013-04-17 08:52:00,
2013-04-17 02:00:00,58.9,32.0,29.98,WNW,292,3.0,6.0,36,0.00,,---,0.00,VWS V14.01,2013-04-17 09:00:00,
2013-04-17 02:08:00,58.7,32.0,29.98,WNW,282,1.0,8.0,36,0.00,,,0.00,weatherlink.com 1.10,2013-04-17 09:08:00,
2013-04-17 02:15:00,58.6,31.8,29.99,WNW,292,3.0,8.0,36,0.00,,---,0.00,VWS V14.01,2013-04-17 09:15:00,
2013-04-17 02:23:00,58.5,32.0,29.98,West,281,4.0,6.0,37,0.00,,,0.00,weatherlink.com 1.10,2013-04-17 09:23:00,
2013-04-17 02:30:00,58.3,32.2,29.98,WNW,292,2.0,6.0,37,0.00,,---,0.00,VWS V14.01,2013-04-17 09:30:00,
2013-04-17 02:38:00,58.1,32.0,29.98,WNW,282,2.0,6.0,37,0.00,,,0.00,weatherlink.com 1.10,2013-04-17 09:38:00,
2013-04-17 02:45:00,57.8,32.4,29.98,West,270,2.0,6.0,38,0.00,,---,0.00,VWS V14.01,2013-04-17 09:45:00,
2013-04-17 02:53:00,57.5,32.0,29.98,WSW,250,4.0,6.0,38,0.00,,,0.00,weatherlink.com 1.10,2013-04-17 09:53:00,
2013-04-17 03:00:00,57.5,32.1,29.98,WNW,292,2.0,6.0,38,0.00,,---,0.00,VWS V14.01,2013-04-17 10:00:00,
2013-04-17 03:08:00,57.4,32.0,29.99,WNW,292,4.0,7.0,38,0.00,,,0.00,weatherlink.com 1.10,2013-04-17 10:08:00,
2013-04-17 03:15:00,57.4,32.0,29.99,WNW,292,2.0,7.0,38,0.00,,---,0.00,VWS V14.01,2013-04-17 10:15:00,
2013-04-17 03:23:00,57.2,32.0,29.99,West,279,2.0,6.0,38,0.00,,,0.00,weatherlink.com 1.10,2013-04-17 10:23:00,
2013-04-17 03:30:00,57.1,32.4,29.99,WNW,292,2.0,7.0,39,0.00,,---,0.00,VWS V14.01,2013-04-17 10:30:00,
2013-04-17 03:38:00,56.8,32.0,29.99,West,261,3.0,6.0,39,0.00,,,0.00,weatherlink.com 1.10,2013-04-17 10:38:00,
2013-04-17 03:45:00,56.7,32.0,29.99,West,270,2.0,6.0,39,0.00,,---,0.00,VWS V14.01,2013-04-17 10:45:00,
2013-04-17 03:53:00,56.5,32.0,29.99,WSW,256,2.0,6.0,39,0.00,,,0.00,weatherlink.com 1.10,2013-04-17 10:53:00,
2013-04-17 04:00:00,56.4,31.8,29.99,West,270,3.0,6.0,39,0.00,,---,0.00,VWS V14.01,2013-04-17 11:00:00,
2013-04-17 04:15:00,56.1,31.5,29.99,West,270,3.0,8.0,39,0.00,,---,0.00,VWS V14.01,2013-04-17 11:15:00,
2013-04-17 04:23:00,55.9,31.0,29.99,WNW,292,2.0,7.0,39,0.00,,,0.00,weatherlink.com 1.10,2013-04-17 11:23:00,
2013-04-17 04:30:00,55.7,31.1,30.00,WNW,292,2.0,7.0,39,0.00,,---,0.00,VWS V14.01,2013-04-17 11:30:00,
2013-04-17 04:38:00,55.5,30.0,30.00,WNW,284,1.0,7.0,38,0.00,,,0.00,weatherlink.com 1.10,2013-04-17 11:38:00,
2013-04-17 04:45:00,55.6,30.4,30.00,WNW,292,2.0,7.0,38,0.00,,---,0.00,VWS V14.01,2013-04-17 11:45:00,
2013-04-17 04:53:00,56.0,30.0,30.00,WNW,302,1.0,9.0,37,0.00,,,0.00,weatherlink.com 1.10,2013-04-17 11:53:00,
2013-04-17 05:00:00,56.2,29.6,30.00,WNW,292,3.0,9.0,36,0.00,,---,0.00,VWS V14.01,2013-04-17 12:00:00,
2013-04-17 05:08:00,56.6,30.0,30.00,WNW,288,3.0,9.0,36,0.00,,,0.00,weatherlink.com 1.10,2013-04-17 12:08:00,
2013-04-17 05:15:00,56.6,29.3,30.00,WNW,292,4.0,9.0,35,0.00,,---,0.00,VWS V14.01,2013-04-17 12:15:00,
2013-04-17 05:23:00,56.7,29.0,30.01,WNW,284,1.0,9.0,35,0.00,,,0.00,weatherlink.com 1.10,2013-04-17 12:23:00,
2013-04-17 05:30:00,56.7,29.4,30.01,WNW,292,3.0,12.0,35,0.00,,---,0.00,VWS V14.01,2013-04-17 12:30:00,
2013-04-17 05:38:00,56.6,29.0,30.01,WNW,293,4.0,9.0,35,0.00,,,0.00,weatherlink.com 1.10,2013-04-17 12:38:00,
2013-04-17 05:45:00,56.4,29.8,30.01,WNW,292,3.0,10.0,36,0.00,,---,0.00,VWS V14.01,2013-04-17 12:45:00,
2013-04-17 05:53:00,56.2,29.0,30.02,NNW,334,3.0,8.0,36,0.00,,,0.00,weatherlink.com 1.10,2013-04-17 12:53:00,
2013-04-17 06:00:00,56.0,29.4,30.02,WNW,292,3.0,8.0,36,0.00,,---,0.00,VWS V14.01,2013-04-17 13:00:00,
2013-04-17 06:08:00,55.7,30.0,30.02,WNW,298,0.0,7.0,37,0.00,,,0.00,weatherlink.com 1.10,2013-04-17 13:08:00,
2013-04-17 06:15:00,55.4,29.6,30.02,WNW,292,2.0,7.0,37,0.00,,---,0.00,VWS V14.01,2013-04-17 13:15:00,
2013-04-17 06:23:00,55.2,29.0,30.03,NW,309,3.0,6.0,37,0.00,,,0.00,weatherlink.com 1.10,2013-04-17 13:23:00,
2013-04-17 06:30:00,55.1,30.0,30.03,NW,315,2.0,6.0,38,0.00,,---,0.00,VWS V14.01,2013-04-17 13:30:00,
2013-04-17 06:38:00,54.9,30.0,30.03,NW,325,0.0,6.0,38,0.00,,,0.00,weatherlink.com 1.10,2013-04-17 13:38:00,
2013-04-17 06:45:00,54.8,29.7,30.03,NW,315,1.0,6.0,38,0.00,,---,0.00,VWS V14.01,2013-04-17 13:45:00,
2013-04-17 06:53:00,54.5,30.0,30.04,NNW,346,0.0,4.0,39,0.00,,,0.00,weatherlink.com 1.10,2013-04-17 13:53:00,
2013-04-17 07:00:00,54.4,30.0,30.04,NNW,338,1.0,4.0,39,0.00,,---,0.00,VWS V14.01,2013-04-17 14:00:00,
2013-04-17 07:08:00,55.2,30.0,30.04,WNW,299,1.0,6.0,38,0.00,,,0.00,weatherlink.com 1.10,2013-04-17 14:08:00,
2013-04-17 07:15:00,55.9,30.0,30.05,WNW,292,2.0,8.0,37,0.00,,---,0.00,VWS V14.01,2013-04-17 14:15:00,
2013-04-17 07:23:00,57.0,30.0,30.05,WNW,301,1.0,7.0,36,0.00,,,0.00,weatherlink.com 1.10,2013-04-17 14:23:00,
2013-04-17 07:30:00,57.5,30.1,30.05,WNW,292,3.0,8.0,35,0.00,,---,0.00,VWS V14.01,2013-04-17 14:30:00,
2013-04-17 07:38:00,58.2,31.0,30.05,WNW,297,3.0,9.0,35,0.00,,,0.00,weatherlink.com 1.10,2013-04-17 14:38:00,
2013-04-17 07:45:00,58.5,30.2,30.06,NW,315,3.0,9.0,34,0.00,,---,0.00,VWS V14.01,2013-04-17 14:45:00,
2013-04-17 07:53:00,59.1,31.0,30.06,WNW,293,3.0,9.0,34,0.00,,,0.00,weatherlink.com 1.10,2013-04-17 14:53:00,
2013-04-17 08:00:00,59.5,31.1,30.06,NW,315,3.0,9.0,34,0.00,,---,0.00,VWS V14.01,2013-04-17 15:00:00,
2013-04-17 08:08:00,60.5,32.0,30.07,NNW,346,0.0,8.0,34,0.00,,,0.00,weatherlink.com 1.10,2013-04-17 15:08:00,
2013-04-17 08:15:00,61.0,31.7,30.07,NW,315,3.0,9.0,33,0.00,,---,0.00,VWS V14.01,2013-04-17 15:15:00,
2013-04-17 08:23:00,61.9,31.0,30.07,NW,316,4.0,8.0,31,0.00,,,0.00,weatherlink.com 1.10,2013-04-17 15:23:00,
2013-04-17 08:30:00,62.3,32.1,30.07,NW,315,4.0,8.0,32,0.00,,---,0.00,VWS V14.01,2013-04-17 15:30:00,
2013-04-17 08:38:00,63.2,31.0,30.08,NW,323,8.0,9.0,30,0.00,,,0.00,weatherlink.com 1.10,2013-04-17 15:38:00,
2013-04-17 08:45:00,63.5,32.3,30.08,NW,315,3.0,9.0,31,0.00,,---,0.00,VWS V14.01,2013-04-17 15:45:00,
2013-04-17 08:53:00,64.3,32.0,30.07,NW,313,4.0,7.0,30,0.00,,,0.00,weatherlink.com 1.10,2013-04-17 15:53:00,
2013-04-17 09:00:00,64.7,30.9,30.07,NW,315,4.0,11.0,28,0.00,,---,0.00,VWS V14.01,2013-04-17 16:00:00,
2013-04-17 09:09:00,65.3,30.0,30.07,NW,325,6.0,10.0,27,0.00,,,0.00,weatherlink.com 1.10,2013-04-17 16:09:00,
2013-04-17 09:24:00,66.2,30.0,30.07,WNW,283,1.0,9.0,26,0.00,,,0.00,weatherlink.com 1.10,2013-04-17 16:24:00,
2013-04-17 09:30:00,66.4,30.5,30.07,NW,315,4.0,9.0,26,0.00,,---,0.00,VWS V14.01,2013-04-17 16:30:00,
2013-04-17 09:39:00,67.3,31.0,30.07,West,273,3.0,8.0,26,0.00,,,0.00,weatherlink.com 1.10,2013-04-17 16:39:00,
2013-04-17 09:45:00,67.6,31.5,30.07,NW,315,3.0,8.0,26,0.00,,---,0.00,VWS V14.01,2013-04-17 16:45:00,
2013-04-17 09:54:00,68.2,31.0,30.07,North,11,0.0,8.0,25,0.00,,,0.00,weatherlink.com 1.10,2013-04-17 16:54:00,
2013-04-17 10:00:00,68.5,28.2,30.07,NW,315,4.0,10.0,22,0.00,,---,0.00,VWS V14.01,2013-04-17 17:00:00,
2013-04-17 10:09:00,68.9,28.0,30.07,NW,315,2.0,11.0,22,0.00,,,0.00,weatherlink.com 1.10,2013-04-17 17:09:00,
2013-04-17 10:15:00,69.1,28.7,30.07,NW,315,3.0,11.0,22,0.00,,---,0.00,VWS V14.01,2013-04-17 17:15:00,
2013-04-17 10:24:00,69.4,28.0,30.07,NW,317,3.0,11.0,21,0.00,,,0.00,weatherlink.com 1.10,2013-04-17 17:24:00,
2013-04-17 10:30:00,69.5,29.0,30.07,NW,315,3.0,11.0,22,0.00,,---,0.00,VWS V14.01,2013-04-17 17:30:00,
2013-04-17 10:39:00,70.4,30.0,30.07,WNW,301,3.0,8.0,22,0.00,,,0.00,weatherlink.com 1.10,2013-04-17 17:39:00,
2013-04-17 10:45:00,70.3,29.7,30.07,NW,315,3.0,9.0,22,0.00,,---,0.00,VWS V14.01,2013-04-17 17:45:00,
2013-04-17 10:54:00,70.1,27.0,30.06,West,271,7.0,8.0,20,0.00,,,0.00,weatherlink.com 1.10,2013-04-17 17:54:00,
2013-04-17 11:00:00,70.2,26.0,30.06,West,270,3.0,9.0,19,0.00,,---,0.00,VWS V14.01,2013-04-17 18:00:00,
2013-04-17 11:09:00,70.9,25.0,30.06,NW,313,1.0,6.0,18,0.00,,,0.00,weatherlink.com 1.10,2013-04-17 18:09:00,
2013-04-17 11:15:00,71.3,28.2,30.06,NW,315,2.0,6.0,20,0.00,,---,0.00,VWS V14.01,2013-04-17 18:15:00,
2013-04-17 11:24:00,71.9,33.0,30.06,NNW,336,5.0,8.0,24,0.00,,,0.00,weatherlink.com 1.10,2013-04-17 18:24:00,
2013-04-17 11:30:00,72.1,26.3,30.06,NW,315,3.0,11.0,18,0.00,,---,0.00,VWS V14.01,2013-04-17 18:30:00,
2013-04-17 11:39:00,72.9,24.0,30.06,NW,315,7.0,13.0,16,0.00,,,0.00,weatherlink.com 1.10,2013-04-17 18:39:00,
2013-04-17 11:45:00,72.5,25.2,30.05,NW,315,4.0,13.0,17,0.00,,---,0.00,VWS V14.01,2013-04-17 18:45:00,
2013-04-17 11:54:00,72.0,23.0,30.05,NW,308,3.0,13.0,16,0.00,,,0.00,weatherlink.com 1.10,2013-04-17 18:54:00,
2013-04-17 12:06:00,72.5,25.2,30.05,NW,315,4.0,13.0,17,0.00,,---,0.00,VWS V14.01,2013-04-17 19:06:00,
2013-04-17 12:11:00,72.7,24.0,30.05,West,267,8.0,8.0,16,0.00,,---,0.00,VWS V14.01,2013-04-17 19:11:00,
2013-04-17 12:16:00,72.6,23.9,30.05,NE,37,2.0,4.0,16,0.00,,---,0.00,VWS V14.01,2013-04-17 19:16:00,
2013-04-17 12:21:00,72.8,26.9,30.05,NE,49,3.0,4.0,18,0.00,,---,0.00,VWS V14.01,2013-04-17 19:21:00,
2013-04-17 12:26:00,73.3,28.6,30.04,ESE,102,0.0,4.0,19,0.00,,---,0.00,VWS V14.01,2013-04-17 19:26:00,
2013-04-17 12:31:00,73.6,26.1,30.04,SSE,166,0.0,2.0,17,0.00,,---,0.00,VWS V14.01,2013-04-17 19:31:00,
2013-04-17 12:37:00,73.5,24.6,30.04,SSE,166,2.0,2.0,16,0.00,,---,0.00,VWS V14.01,2013-04-17 19:37:00,
2013-04-17 12:42:00,74.1,25.1,30.04,West,279,5.0,6.0,16,0.00,,---,0.00,VWS V14.01,2013-04-17 19:42:00,
2013-04-17 12:58:00,73.5,34.0,30.04,SW,220,4.0,12.0,24,0.00,,,0.00,weatherlink.com 1.10,2013-04-17 19:58:00,
2013-04-17 13:00:00,73.4,34.5,30.04,West,270,3.0,12.0,24,0.00,,---,0.00,VWS V14.01,2013-04-17 20:00:00,
2013-04-17 13:13:00,72.9,36.0,30.03,South,173,4.0,16.0,26,0.00,,,0.00,weatherlink.com 1.10,2013-04-17 20:13:00,
2013-04-17 13:15:00,72.8,35.0,30.03,WSW,248,6.0,16.0,25,0.00,,---,0.00,VWS V14.01,2013-04-17 20:15:00,
2013-04-17 13:28:00,71.1,37.0,30.04,West,264,6.0,15.0,29,0.00,,,0.00,weatherlink.com 1.10,2013-04-17 20:28:00,
2013-04-17 13:30:00,70.8,38.7,30.04,SW,225,7.0,15.0,31,0.00,,---,0.00,VWS V14.01,2013-04-17 20:30:00,
2013-04-17 13:43:00,70.3,37.0,30.04,SW,216,6.0,16.0,30,0.00,,,0.00,weatherlink.com 1.10,2013-04-17 20:43:00,
2013-04-17 13:45:00,70.4,37.5,30.04,SSW,202,7.0,16.0,30,0.00,,---,0.00,VWS V14.01,2013-04-17 20:45:00,
2013-04-17 13:58:00,70.5,35.0,30.04,South,188,10.0,19.0,27,0.00,,,0.00,weatherlink.com 1.10,2013-04-17 20:58:00,
2013-04-17 14:00:00,70.6,35.0,30.04,SSW,202,7.0,19.0,27,0.00,,---,0.00,VWS V14.01,2013-04-17 21:00:00,
2013-04-17 14:13:00,70.5,33.0,30.04,SW,217,11.0,17.0,25,0.00,,,0.00,weatherlink.com 1.10,2013-04-17 21:13:00,
2013-04-17 14:15:00,70.4,31.9,30.04,SW,225,8.0,20.0,24,0.00,,---,0.00,VWS V14.01,2013-04-17 21:15:00,
2013-04-17 14:28:00,69.1,39.0,30.04,SSW,212,10.0,14.0,33,0.00,,,0.00,weatherlink.com 1.10,2013-04-17 21:28:00,
2013-04-17 14:30:00,69.0,38.7,30.04,SSW,202,8.0,18.0,33,0.00,,---,0.00,VWS V14.01,2013-04-17 21:30:00,
2013-04-17 14:43:00,69.6,32.0,30.04,WSW,244,9.0,19.0,25,0.00,,,0.00,weatherlink.com 1.10,2013-04-17 21:43:00,
2013-04-17 14:45:00,69.7,34.3,30.04,WSW,248,9.0,19.0,27,0.00,,---,0.00,VWS V14.01,2013-04-17 21:45:00,
2013-04-17 14:58:00,70.0,30.0,30.04,SW,233,16.0,21.0,23,0.00,,,0.00,weatherlink.com 1.10,2013-04-17 21:58:00,
2013-04-17 15:00:00,70.1,30.6,30.04,WSW,248,10.0,21.0,23,0.00,,---,0.00,VWS V14.01,2013-04-17 22:00:00,
2013-04-17 15:13:00,70.8,28.0,30.04,SW,234,14.0,20.0,20,0.00,,,0.00,weatherlink.com 1.10,2013-04-17 22:13:00,
2013-04-17 15:15:00,70.8,27.8,30.04,WSW,248,9.0,20.0,20,0.00,,---,0.00,VWS V14.01,2013-04-17 22:15:00,
2013-04-17 15:28:00,70.5,27.0,30.03,WSW,257,12.0,19.0,20,0.00,,,0.00,weatherlink.com 1.10,2013-04-17 22:28:00,
2013-04-17 15:30:00,70.4,27.5,30.03,WSW,248,9.0,19.0,20,0.00,,---,0.00,VWS V14.01,2013-04-17 22:30:00,
2013-04-17 15:43:00,71.0,25.0,30.03,WSW,243,11.0,19.0,18,0.00,,,0.00,weatherlink.com 1.10,2013-04-17 22:43:00,
2013-04-17 15:45:00,71.1,24.1,30.03,WSW,248,9.0,19.0,17,0.00,,---,0.00,VWS V14.01,2013-04-17 22:45:00,
2013-04-17 15:58:00,70.7,26.0,30.02,West,259,13.0,19.0,19,0.00,,,0.00,weatherlink.com 1.10,2013-04-17 22:58:00,
2013-04-17 16:00:00,70.7,27.7,30.02,WSW,248,9.0,19.0,20,0.00,,---,0.00,VWS V14.01,2013-04-17 23:00:00,
2013-04-17 16:13:00,71.0,29.0,30.02,WSW,254,10.0,19.0,21,0.00,,,0.00,weatherlink.com 1.10,2013-04-17 23:13:00,
2013-04-17 16:15:00,71.0,29.1,30.02,WSW,248,9.0,19.0,21,0.00,,---,0.00,VWS V14.01,2013-04-17 23:15:00,
2013-04-17 16:28:00,71.1,31.0,30.02,WSW,252,6.0,16.0,23,0.00,,,0.00,weatherlink.com 1.10,2013-04-17 23:28:00,
2013-04-17 16:30:00,71.2,33.6,30.02,WSW,248,8.0,16.0,25,0.00,,---,0.00,VWS V14.01,2013-04-17 23:30:00,
2013-04-17 16:43:00,70.9,36.0,30.02,West,267,3.0,12.0,28,0.00,,,0.00,weatherlink.com 1.10,2013-04-17 23:43:00,
2013-04-17 16:45:00,71.0,35.4,30.02,WSW,248,6.0,13.0,27,0.00,,---,0.00,VWS V14.01,2013-04-17 23:45:00,
2013-04-17 16:58:00,71.0,33.0,30.02,WSW,249,4.0,14.0,25,0.00,,,0.00,weatherlink.com 1.10,2013-04-17 23:58:00,
2013-04-17 17:00:00,71.0,33.4,30.02,WSW,248,7.0,14.0,25,0.00,,---,0.00,VWS V14.01,2013-04-18 00:00:00,
2013-04-17 17:13:00,70.2,35.0,30.02,WSW,247,10.0,15.0,27,0.00,,,0.00,weatherlink.com 1.10,2013-04-18 00:13:00,
2013-04-17 17:15:00,70.2,32.8,30.02,WSW,248,7.0,17.0,25,0.00,,---,0.00,VWS V14.01,2013-04-18 00:15:00,
2013-04-17 17:28:00,70.0,30.0,30.02,SSW,212,7.0,14.0,23,0.00,,,0.00,weatherlink.com 1.10,2013-04-18 00:28:00,
2013-04-17 17:30:00,70.0,31.6,30.02,WSW,248,7.0,14.0,24,0.00,,---,0.00,VWS V14.01,2013-04-18 00:30:00,
2013-04-17 17:43:00,70.1,35.0,30.03,WSW,245,5.0,18.0,28,0.00,,,0.00,weatherlink.com 1.10,2013-04-18 00:43:00,
2013-04-17 17:45:00,70.1,34.6,30.03,WSW,248,6.0,18.0,27,0.00,,---,0.00,VWS V14.01,2013-04-18 00:45:00,
2013-04-17 17:58:00,68.8,31.0,30.03,SSE,148,5.0,14.0,25,0.00,,,0.00,weatherlink.com 1.10,2013-04-18 00:58:00,
2013-04-17 18:00:00,68.8,32.5,30.03,WSW,248,7.0,14.0,26,0.00,,---,0.00,VWS V14.01,2013-04-18 01:00:00,
2013-04-17 18:13:00,68.4,30.0,30.03,WSW,237,2.0,14.0,24,0.00,,,0.00,weatherlink.com 1.10,2013-04-18 01:13:00,
2013-04-17 18:15:00,68.4,30.2,30.03,WSW,248,6.0,14.0,24,0.00,,---,0.00,VWS V14.01,2013-04-18 01:15:00,
2013-04-17 18:30:00,67.7,35.2,30.03,WSW,248,5.0,12.0,30,0.00,,---,0.00,VWS V14.01,2013-04-18 01:30:00,
2013-04-17 18:43:00,66.6,35.0,30.03,WSW,243,5.0,10.0,31,0.00,,,0.00,weatherlink.com 1.10,2013-04-18 01:43:00,
2013-04-17 18:45:00,66.6,35.0,30.03,WSW,248,6.0,12.0,31,0.00,,---,0.00,VWS V14.01,2013-04-18 01:45:00,
2013-04-17 18:58:00,65.6,37.0,30.03,SSW,206,1.0,9.0,35,0.00,,,0.00,weatherlink.com 1.10,2013-04-18 01:58:00,
2013-04-17 19:00:00,65.5,37.9,30.03,WSW,248,3.0,9.0,36,0.00,,---,0.00,VWS V14.01,2013-04-18 02:00:00,
2013-04-17 19:13:00,63.2,40.0,30.03,SW,233,5.0,9.0,42,0.00,,,0.00,weatherlink.com 1.10,2013-04-18 02:13:00,
2013-04-17 19:15:00,63.1,39.7,30.03,WSW,248,4.0,9.0,42,0.00,,---,0.00,VWS V14.01,2013-04-18 02:15:00,
2013-04-17 19:28:00,62.2,39.0,30.03,West,264,6.0,10.0,42,0.00,,,0.00,weatherlink.com 1.10,2013-04-18 02:28:00,
2013-04-17 19:30:00,62.1,38.8,30.03,WSW,248,4.0,10.0,42,0.00,,---,0.00,VWS V14.01,2013-04-18 02:30:00,
2013-04-17 19:43:00,60.9,44.0,30.04,WSW,244,2.0,6.0,54,0.00,,,0.00,weatherlink.com 1.10,2013-04-18 02:43:00,
2013-04-17 19:45:00,60.8,44.1,30.04,WSW,248,2.0,8.0,54,0.00,,---,0.00,VWS V14.01,2013-04-18 02:45:00,
2013-04-17 19:58:00,60.2,44.0,30.04,South,182,0.0,4.0,55,0.00,,,0.00,weatherlink.com 1.10,2013-04-18 02:58:00,
2013-04-17 20:00:00,60.1,43.9,30.04,SSW,202,1.0,4.0,55,0.00,,---,0.00,VWS V14.01,2013-04-18 03:00:00,
2013-04-17 20:13:00,59.3,43.0,30.04,South,182,0.0,1.0,55,0.00,,,0.00,weatherlink.com 1.10,2013-04-18 03:13:00,
2013-04-17 20:15:00,59.3,43.2,30.04,South,180,0.0,2.0,55,0.00,,---,0.00,VWS V14.01,2013-04-18 03:15:00,
2013-04-17 20:28:00,58.5,44.0,30.05,South,182,0.0,1.0,59,0.00,,,0.00,weatherlink.com 1.10,2013-04-18 03:28:00,
2013-04-17 20:30:00,58.5,44.2,30.05,South,180,0.0,1.0,59,0.00,,---,0.00,VWS V14.01,2013-04-18 03:30:00,
2013-04-17 20:43:00,57.6,44.0,30.06,South,182,0.0,0.0,62,0.00,,,0.00,weatherlink.com 1.10,2013-04-18 03:43:00,
2013-04-17 20:45:00,57.6,44.7,30.06,South,180,0.0,0.0,62,0.00,,---,0.00,VWS V14.01,2013-04-18 03:45:00,
2013-04-17 20:58:00,56.6,44.0,30.06,South,182,0.0,0.0,64,0.00,,,0.00,weatherlink.com 1.10,2013-04-18 03:58:00,
2013-04-17 21:00:00,56.6,44.6,30.06,South,180,0.0,0.0,64,0.00,,---,0.00,VWS V14.01,2013-04-18 04:00:00,
2013-04-17 21:13:00,55.5,45.0,30.07,South,182,0.0,0.0,67,0.00,,,0.00,weatherlink.com 1.10,2013-04-18 04:13:00,
2013-04-17 21:15:00,55.5,44.7,30.07,South,180,0.0,0.0,67,0.00,,---,0.00,VWS V14.01,2013-04-18 04:15:00,
2013-04-17 21:28:00,54.7,45.0,30.07,South,182,0.0,0.0,69,0.00,,,0.00,weatherlink.com 1.10,2013-04-18 04:28:00,
2013-04-17 21:30:00,54.6,44.7,30.07,South,180,0.0,0.0,69,0.00,,---,0.00,VWS V14.01,2013-04-18 04:30:00,
2013-04-17 21:43:00,53.9,45.0,30.07,South,182,0.0,0.0,71,0.00,,,0.00,weatherlink.com 1.10,2013-04-18 04:43:00,
2013-04-17 21:45:00,53.9,44.7,30.07,South,180,0.0,0.0,71,0.00,,---,0.00,VWS V14.01,2013-04-18 04:45:00,
2013-04-17 21:58:00,53.4,45.0,30.08,South,182,0.0,1.0,73,0.00,,,0.00,weatherlink.com 1.10,2013-04-18 04:58:00,
2013-04-17 22:00:00,53.4,45.0,30.08,South,180,0.0,1.0,73,0.00,,---,0.00,VWS V14.01,2013-04-18 05:00:00,
2013-04-17 22:13:00,53.4,44.0,30.08,South,182,0.0,1.0,71,0.00,,,0.00,weatherlink.com 1.10,2013-04-18 05:13:00,
2013-04-17 22:15:00,53.4,44.2,30.08,South,180,0.0,2.0,71,0.00,,---,0.00,VWS V14.01,2013-04-18 05:15:00,
2013-04-17 22:28:00,53.2,44.0,30.08,South,182,0.0,1.0,71,0.00,,,0.00,weatherlink.com 1.10,2013-04-18 05:28:00,
2013-04-17 22:30:00,53.2,44.0,30.08,South,180,0.0,1.0,71,0.00,,---,0.00,VWS V14.01,2013-04-18 05:30:00,
2013-04-17 22:43:00,53.0,45.0,30.09,South,182,0.0,1.0,73,0.00,,,0.00,weatherlink.com 1.10,2013-04-18 05:43:00,
2013-04-17 22:45:00,53.0,44.6,30.09,South,180,0.0,1.0,73,0.00,,---,0.00,VWS V14.01,2013-04-18 05:45:00,
2013-04-17 22:58:00,53.4,45.0,30.09,South,182,0.0,0.0,72,0.00,,,0.00,weatherlink.com 1.10,2013-04-18 05:58:00,
2013-04-17 23:00:00,53.4,44.6,30.09,South,180,0.0,1.0,72,0.00,,---,0.00,VWS V14.01,2013-04-18 06:00:00,
2013-04-17 23:13:00,52.5,44.0,30.09,South,182,0.0,0.0,74,0.00,,,0.00,weatherlink.com 1.10,2013-04-18 06:13:00,
2013-04-17 23:15:00,52.5,44.5,30.09,South,180,0.0,0.0,74,0.00,,---,0.00,VWS V14.01,2013-04-18 06:15:00,
2013-04-17 23:28:00,51.7,44.0,30.09,South,182,0.0,0.0,76,0.00,,,0.00,weatherlink.com 1.10,2013-04-18 06:28:00,
2013-04-17 23:30:00,51.7,44.4,30.09,South,180,0.0,0.0,76,0.00,,---,0.00,VWS V14.01,2013-04-18 06:30:00,
2013-04-17 23:43:00,50.8,44.0,30.10,South,182,0.0,0.0,78,0.00,,,0.00,weatherlink.com 1.10,2013-04-18 06:43:00,
2013-04-17 23:45:00,50.8,44.2,30.10,South,180,0.0,0.0,78,0.00,,---,0.00,VWS V14.01,2013-04-18 06:45:00,
2013-04-17 23:59:00,49.9,44.0,30.10,South,182,0.0,0.0,80,0.00,,,0.00,weatherlink.com 1.10,2013-04-18 06:59:00,